Location: ????????
(60.3516°N, 46.6494°E)
Time: 15:17:40
(UTC+00:00)

Daily predictions for brighter satellites

Satellite Brightness Start Highest point End
(mag) Time Altitude Azimuth Time Altitude Azimuth Time Altitude Azimuth
USA 267 4.3 19:47:41 10° SSE 19:53:10 28° SW 19:58:39 10° W
Cosmos 2074 Rocket 4.2 19:47:11 10° SSW 19:53:25 75° WNW 19:59:40 10° NNE
Cosmos 2058 3.0 19:50:06 10° SSW 19:54:16 87° WNW 19:58:26 10° NNE
In-Cosmos 22 Rocket 4.1 19:49:55 10° SSW 19:55:14 90° W 20:00:38 10° NNE
EO 1 Delta rocket 4.2 19:50:50 10° NNE 19:55:39 70° E 20:01:20 10° S
Cosmos 332 Rocket 3.9 19:53:32 10° NNW 19:58:23 80° ENE 20:03:12 10° SE
Cosmos 1408 2.5 19:55:30 10° S 19:59:03 74° ESE 20:02:39 10° NNE
CZ-4C R/B 2.9 19:52:46 10° WNW 19:59:16 90° SSW 20:07:05 10° ESE
NOSS 7 (E) 4.5 19:58:46 10° WNW 20:02:00 88° SSW 20:05:58 10° ESE
Cosmos 1680 Rocket 3.8 19:56:54 10° SSW 20:02:07 58° ESE 20:07:21 10° NE
COSMOS 2455 2.9 19:58:26 10° NW 20:04:30 77° SW 20:10:33 10° SE
Cosmos 1076 Rocket 3.6 20:00:37 10° SSW 20:04:56 80° WNW 20:09:14 10° NNE
SL-8 Rocket 4.4 20:02:21 10° SSE 20:08:19 54° E 20:14:18 10° NNE
Cosmos 1452 Rocket 3.6 20:03:05 10° NNW 20:08:24 88° WSW 20:13:41 10° SSE
Cosmos 2322 Rocket 3.9 20:03:27 10° W 20:08:42 39° NNW 20:14:00 10° NE
NOSS 7 (D) 4.1 20:07:26 10° WSW 20:10:06 66° NNW 20:12:45 10° ENE
Cosmos 1727 Rocket 4.3 20:05:24 10° NNW 20:11:37 66° ENE 20:17:50 10° SSE
SL-16 R/B 4.3 20:07:09 10° ESE 20:12:25 30° NE 20:17:44 10° NNW
Cosmos 2344 4.1 20:08:27 10° SSW 20:15:21 42° SE 20:23:10 10° ENE
Cosmos 2151 3.1 20:11:16 10° S 20:15:32 69° E 20:19:48 10° NNE
Helios 1A 3.1 20:12:09 10° SSE 20:16:20 76° ENE 20:20:32 10° NNW
Cosmos 405 3.7 20:13:57 10° N 20:17:26 49° ENE 20:20:53 10° SE
Cosmos 2369 Rocket 2.3 20:12:15 10° NW 20:17:54 83° NE 20:23:32 10° SE
Cosmos 923 Rocket 4.1 20:14:20 10° SSW 20:19:37 85° ESE 20:24:58 10° NNE
Cosmos 1151 Rocket 3.1 20:17:24 10° NNW 20:21:47 77° WSW 20:26:06 10° S
Cosmos 1933 3.4 20:18:16 10° NNW 20:22:18 79° W 20:26:20 10° S
Cosmos 1980 3.8 20:17:24 10° SSW 20:23:00 69° SE 20:28:39 10° NE
APEX 2.9 20:20:23 10° NW 20:23:05 43° SW 20:25:42 10° SSE
ALOS 2 3.0 20:21:02 10° S 20:25:21 56° WSW 20:29:42 10° NNW
Cosmos 1408 Rocket 4.3 20:22:08 10° SSE 20:26:16 42° E 20:30:27 10° NNE
Cosmos 1825 2.2 20:23:57 10° SSW 20:27:45 85° WNW 20:31:35 10° NNE
COSMOS 2428 3.1 20:22:12 10° SW 20:27:52 71° NW 20:33:35 10° NE
Cosmos 371 Rocket 3.6 20:23:17 10° NW 20:28:04 55° WSW 20:32:48 10° S
Cosmos 1340 3.5 20:25:09 10° SSE 20:28:39 38° E 20:32:11 10° NNE
GP-B 3.2 20:24:41 10° N 20:29:10 88° W 20:33:37 10° S
Cosmos 44 4.3 20:27:15 10° S 20:30:48 25° ESE 20:34:27 10° ENE
NOSS 0 Rocket 4.0 20:27:07 10° SW 20:33:17 82° SE 20:39:31 10° NE
Cosmos 1656 Rocket 4.0 20:29:23 10° NW 20:34:50 68° NE 20:40:15 10° SE
NOSS 2-1 (E) 4.3 20:30:58 10° WNW 20:34:57 62° N 20:40:18 10° E
Terra 4.3 20:36:30 10° WSW 20:38:22 12° W 20:40:16 10° NW
Helios 1B rocket 4.2 20:35:20 10° NE 20:38:34 22° E 20:41:47 10° SE
NOSS 3-3 (A) 4.1 20:34:43 10° SW 20:40:56 82° SSE 20:48:08 10° ENE
NOSS 3-3 (C) 4.1 20:34:49 10° SW 20:41:03 82° SSE 20:48:16 10° ENE
Cosmos 2237 Rocket 2.3 20:35:36 10° SSW 20:41:19 81° SE 20:47:04 10° NE
Cosmos 1782 2.8 20:39:43 10° NNW 20:43:43 84° ENE 20:47:42 10° SSE
Cosmos 2263 4.3 20:38:16 10° NW 20:44:01 90° WSW 20:49:49 10° SE
Cosmos 2219 Rocket 2.9 20:38:34 10° WSW 20:44:06 58° NW 20:49:41 10° NE
IRIDIUM 106 4.4 20:39:25 10° S 20:44:40 88° E 20:49:56 10° N
Thor Agena Rocket 3.9 20:40:59 10° NNE 20:46:06 65° WNW 20:51:08 10° SW
Cosmos 2360 Rocket 3.9 20:41:21 10° W 20:46:39 38° NNW 20:51:58 10° NE
Genesis I 3.6 20:45:02 10° SSW 20:48:46 44° SE 20:52:30 10° ENE
CZ-2D R/B 4.4 20:47:10 10° NE 20:49:24 13° ENE 20:51:39 10° ESE
Cosmos 1812 3.8 20:46:42 10° N 20:50:24 40° ENE 20:54:04 10° SE
SL-4 R/B 1.9 20:50:50 10° SSW 20:52:40 26° W 20:54:31 10° NW
ATLAS 2AS CENTAUR R/B 4.1 20:46:51 10° WNW 20:52:45 25° WSW 20:58:19 10° SSW
Cosmos 2333 Rocket 3.1 20:48:28 10° WSW 20:54:03 53° NW 20:59:43 10° NE
GEOS 3 Rocket 4.2 20:51:12 10° ENE 20:56:32 67° NNW 21:01:53 10° W
Cosmos 1346 Rocket 3.4 20:52:46 10° S 20:56:32 46° E 21:00:20 10° NNE
USA 215 3.3 20:52:57 10° E 20:59:29 62° SSE 21:05:58 10° WSW
Cosmos 1515 Rocket 3.9 20:57:20 10° NNW 21:01:38 57° W 21:05:54 10° S
Cosmos 1818 4.4 20:56:48 10° W 21:02:12 59° NNW 21:07:37 10° ENE
RESURS DK-1 2.4 20:58:09 10° NW 21:02:17 68° SW 21:06:24 10° SSE
EO 1 Del DPAF 4.4 21:01:21 10° N 21:04:53 38° WNW 21:08:24 10° SW
SL-16 R/B 4.5 21:01:25 10° WNW 21:06:24 30° N 21:11:23 10° NE
Cosmos 2278 Rocket 4.4 21:06:08 10° WNW 21:07:35 11° W 21:09:02 10° WSW
Cosmos 1707 Rocket 4.3 21:07:30 10° N 21:11:56 53° ENE 21:16:18 10° SSE
Cosmos 1766 Rocket 4.0 21:07:56 10° SSW 21:12:17 61° WNW 21:16:43 10° N
Cosmos 2218 Rocket 4.2 21:06:46 10° SSW 21:13:07 81° WNW 21:19:28 10° NNE
Cosmos 1606 4.4 21:10:09 10° NW 21:13:18 24° W 21:16:27 10° SW
Cosmos 304 Rocket 4.3 21:10:01 10° NW 21:14:38 46° WSW 21:19:13 10° S
Okean 3 Rocket 4.2 21:10:34 10° SSW 21:14:56 53° WNW 21:19:18 10° N
Cosmos 2112 Rocket 4.5 21:10:29 10° SW 21:15:49 65° NW 21:21:11 10° NNE
Cosmos 2228 Rocket 3.3 21:12:22 10° NNW 21:16:58 70° W 21:21:31 10° S
Cosmos 1943 Rocket 2.9 21:12:09 10° NW 21:17:27 41° WSW 21:22:41 10° S
ATLAS 5 CENTAUR R/B 2.4 21:14:01 10° W 21:18:40 65° N 21:24:08 10° ENE
Cosmos 2366 rocket 4.2 21:12:33 10° SSW 21:18:56 78° WNW 21:25:20 10° NNE
Cosmos 158 Rocket 4.5 21:15:42 10° SW 21:20:31 56° NW 21:25:26 10° NNE
Cosmos 2123 Rocket 4.2 21:17:02 10° NNW 21:23:17 75° ENE 21:29:29 10° SSE
Landsat 4 3.8 21:21:10 10° NNE 21:24:58 75° ESE 21:28:46 10° SSW
Lacrosse 5 rocket 2.3 21:22:14 10° W 21:25:34 25° SSW 21:28:46 10° SSE
SL-16 R/B 2.3 21:19:55 10° SSW 21:25:34 73° SE 21:31:17 10° NE
Cosmos 1862 4.2 21:23:24 10° SSE 21:27:08 41° E 21:30:55 10° NNE
Cosmos 1821 Rocket 4.2 21:21:43 10° S 21:27:45 66° E 21:33:48 10° NNE
NOSS 2-1 (C) 4.0 21:26:16 10° WNW 21:30:25 79° NNE 21:36:04 10° ESE
Cosmos 1633 2.6 21:27:17 10° SSW 21:30:56 87° WNW 21:34:34 10° NNE
NOSS 2-1 (D) 4.0 21:30:56 10° WNW 21:35:08 81° NNE 21:40:53 10° ESE
Cosmos 1331 Rocket 4.3 21:32:15 10° NW 21:37:27 54° WSW 21:42:35 10° S
Meteor 1-4 Rocket 4.2 21:35:26 10° N 21:38:57 35° ENE 21:42:25 10° SE
Cosmos 1743 Rocket 3.6 21:35:47 10° SSW 21:40:08 86° WNW 21:44:32 10° NNE
Sich 1 3.8 21:39:10 10° SSE 21:43:17 46° E 21:47:27 10° NNE
Cosmos 1048 Rocket 4.3 21:39:45 10° SSW 21:44:58 61° ESE 21:50:09 10° NE
Meteor 2-3 Rocket 4.0 21:39:32 10° SSW 21:45:10 67° WNW 21:50:56 10° NNE
Meteor 1-10 Rocket 4.4 21:41:38 10° NNW 21:47:11 63° W 21:52:40 10° S
CZ-4C R/B 3.2 21:41:13 10° WNW 21:47:40 45° SW 21:55:09 10° SSE
COSMOS 2455 4.0 21:44:51 10° WNW 21:49:43 26° WSW 21:54:35 10° SSW
Meteor 1-29 3.4 21:48:29 10° NNE 21:51:49 52° ESE 21:55:07 10° S
Cosmos 292 Rocket 3.8 21:48:46 10° NW 21:53:37 77° WSW 21:58:23 10° SSE
PSLV R/B 3.6 21:49:49 10° NNE 21:54:04 88° W 21:58:19 10° SSW
SL-16 R/B 2.7 21:49:10 10° SSE 21:55:25 82° ENE 22:01:43 10° NNW
Cosmos 1992 Rocket 4.3 21:50:46 10° NNW 21:56:02 73° NE 22:01:18 10° SE
Iridium 4 Rocket 4.4 21:50:38 10° SSE 21:56:17 52° E 22:01:38 10° N
Cosmos 389 Rocket 2.5 21:55:22 10° NNW 21:58:55 76° WSW 22:02:24 10° S
Cosmos 1603 4.2 21:55:08 10° S 22:00:34 49° ESE 22:06:06 10° NE
Resurs 1-4 Rocket 3.3 21:56:10 10° NNE 22:01:03 35° E 22:05:54 10° SSE
Cosmos 2369 Rocket 3.2 21:56:41 10° NW 22:01:28 30° WSW 22:06:15 10° SSW
IRAS Rocket 4.3 21:56:22 10° SSE 22:01:51 72° WSW 22:07:23 10° NNW
Cosmos 1340 4.0 22:00:53 10° SW 22:04:20 33° WNW 22:07:49 10° N
SeaSat 1 3.7 22:01:47 10° NE 22:06:08 30° ESE 22:10:28 10° S
